Regional Weather Roundup
Issued by NWS

Home | Current Version | Previous Version | Graphics & Text | Print | Product List | Glossary On
Versions: 1 2 3 4 5 6 7 8 9 10 11 12 13 14 15 16 17 18 19 20 21 22 23 24 25 26 27 28 29 30 31 32 33 34 35 36 37 38 39 40 41 42 43 44 45 46 47 48 49 50
080
ASUS45 KTFX 101110
RWRMT
MONTANA REGIONAL WEATHER ROUNDUP
NATIONAL WEATHER SERVICE GREAT FALLS MT
400 AM MST WED FEB 10 2016

NOTE: "FAIR" INDICATES FEW OR NO CLOUDS BELOW 12000 FEET WITH NO
SIGNIFICANT WEATHER AND/OR OBSTRUCTIONS TO VISIBILITY.

MTZ001>007-043-101200-
WEST OF THE DIVIDE

CITY           SKY/WX    TMP DP  RH WIND       PRES   REMARKS
KALISPELL      FOG       18  16  92 CALM      30.23S VSB 1/4
MISSOULA       FOG       20  18  92 CALM      30.28S VSB 1/2
BUTTE          CLOUDY    10   6  84 VRB3      30.25S
MULLAN PASS    CLEAR     37  26  64 VRB6      30.21F
ANACONDA         N/A     28  21  74 NW3       30.22R
DEER LODGE       N/A     23  21  93 CALM      30.25R
HAMILTON         N/A     27  25  93 CALM      30.25S
LIBBY            N/A     21  19  93 CALM      30.26R
PLAINS           N/A     27  23  84 CALM      30.24F VSB 0
THOMPSON FALLS   N/A     24  22  92 CALM      30.28S VSB 0
$$

MTZ008-052>055-101200-
SOUTHWEST MONTANA

CITY           SKY/WX    TMP DP  RH WIND       PRES   REMARKS
BOZEMAN        CLOUDY    11   9  92 E5        30.22R
DILLON         CLOUDY    32  22  66 SW20      30.23F WCI  20
THREE FORKS      N/A     19  19 100 CALM      30.17S
TWIN BRIDGES     N/A     21  12  68 SE7       30.21F WCI  12
$$

MTZ009-010-012-014-046-048-049-054-101200-
EAST SLOPES AND CENTRAL MONTANA

CITY           SKY/WX    TMP DP  RH WIND       PRES   REMARKS
CUT BANK       PTCLDY    47  26  44 W20       30.00R
GREAT FALLS    CLEAR     45  23  42 SW15      30.03R
MALMSTROM AFB  CLEAR     48  23  36 W12       30.03R
HELENA         CLOUDY    29  25  85 W5        30.19S
CHOTEAU          N/A     52  21  30 SW8       30.03F
CONRAD           N/A     45  28  51 SW15      30.01F
$$

MTZ011-013-016-021-045-047-050-051-101200-
NORTH CENTRAL MONTANA

CITY           SKY/WX    TMP DP  RH WIND       PRES   REMARKS
HAVRE          CLOUDY    36  25  64 SW14      29.96F WCI  27
LEWISTOWN      CLEAR     39  23  52 SW15      30.02F WCI  31
CHINOOK          N/A     39  25  56 W10       29.95R
$$

MTZ017>020-022>027-061-062-101200-
NORTHEAST MONTANA

CITY           SKY/WX    TMP DP  RH WIND       PRES   REMARKS
GLASGOW        CLEAR     32  26  78 NW8       29.89R WCI  25
JORDAN           N/A     38  27  64 W8        29.90S
SIDNEY         CLOUDY    27  23  86 SW6       29.83S WCI  20
WOLF POINT     CLEAR     32  28  85 SW8       29.86S WCI  25
PLENTYWOOD       N/A     28  25  86 NW7       29.81S WCI  21
POPLAR           N/A     30  27  86 W6        29.85S WCI  24
SCOBEY           N/A     31  22  69 SE2       29.82F
$$

MTZ028>42-056>058-101200-
SOUTHCENTRAL AND SOUTHEAST MONTANA

CITY           SKY/WX    TMP DP  RH WIND       PRES   REMARKS
BAKER          CLEAR     34  24  67 W15       29.88R WCI  24
BILLINGS       CLEAR     44  22  41 SW22      30.00F
LIVINGSTON     CLOUDY    46  21  37 W31G52    30.13F
MILES CITY     CLEAR     37  24  59 W9        29.91F WCI  30
FORSYTH          N/A     41  23  48 SW8       29.93S
LAUREL           N/A     45  19  35 SW13      30.02R
ROUNDUP          N/A     47  15  27 SW10      29.91S
$$

REGIONAL REPORTS...DAKOTAS

CITY           SKY/WX    TMP DP  RH WIND       PRES   REMARKS
WILLISTON      CLOUDY    26  22  84 SW7       29.80F WCI  18
MINOT          CLOUDY    19  12  74 E13       29.85F WCI   6
DICKINSON      CLOUDY    27  24  89 W9        29.79F WCI  18
BEACH            N/A     36  28  75 W18       29.86S WCI  25
CROSBY           N/A     23  23 100 N7        29.84R WCI  15
TIOGA            N/A     23  23 100 W5        29.83S
WATFORD CITY     N/A     28  27  93 SW7       29.81S WCI  21
BISMARCK       PTCLDY    26  19  74 SE10      29.87F WCI  16
GRAND FORKS    CLOUDY     5  -3  69 SE7       30.12F WCI  -7
FARGO          CLOUDY     6  -1  73 E3        30.11F
BUFFALO SD       N/A     32  24  72 W14       29.79F WCI  22
RAPID CITY     CLEAR     32  23  69 NW5       29.88F
$$

REGIONAL REPORTS...WYOMING/IDAHO/WASHINGTON

CITY           SKY/WX    TMP DP  RH WIND       PRES   REMARKS
GILLETTE       CLOUDY    42  21  43 W13       29.99F
SHERIDAN       CLOUDY    35  18  49 NE7       29.99F WCI  29
BUFFALO WY     CLOUDY    58   9  14 NW12      30.02F
CODY           CLOUDY    43  10  26 NE13G18   30.09F
YELLOWSTONE LA   N/A      4   0  83 CALM      30.39F
IDAHO FALLS    CLOUDY    10   6  84 N6        30.42F WCI   0
SALMON         CLEAR      3   0  85 CALM      30.43S
BOISE          FOG       26  25  96 CALM      30.42S VSB 1/4
SPOKANE        PTCLDY    35  34  96 SE5       30.23F FOG
$$

REGIONAL REPORTS...ALBERTA

CITY           SKY/WX    TMP DP  RH WIND       PRES   REMARKS
EDMONTON       CLOUDY    30  27  86 N5        30.08R
CALGARY        PTCLDY    30  19  64 N9        30.03R WCI  22
LETHBRIDGE     CLEAR     39  25  56 NW9       30.00R
MEDICINE HAT   CLEAR     30  25  80 VRB2      29.99R
WATERTON GATE    N/A     50  23  34 SW16G36     N/A
CARDSTON         N/A     50  23  34 NW13G20     N/A
MILK RIVER       N/A     39  28  65 W16G22      N/A  WCI  30
ONEFOUR          N/A     32  27  80 W14         N/A  WCI  22
$$

REGIONAL REPORTS...SASKATCHEWAN

CITY           SKY/WX    TMP DP  RH WIND       PRES   REMARKS
SWIFT CURRENT  CLEAR     30  28  93 W12       29.92R WCI  21
REGINA         MOCLDY    21  19  93 E5        29.85R
SASKATOON      CLOUDY    25  23  93 N6        29.96R WCI  18
CYPRESS HILLS    N/A     37  21  52 N10         N/A  WCI  30
VAL MARIE        N/A     32  25  74 W3          N/A
ROCKGLEN         N/A     37  28  70 NW15        N/A  WCI  28
ASSINIBOIA       N/A     30  28  93 N7          N/A  WCI  23
$$




USA.gov is the U.S. government's official web portal to all federal, state and local government web resources and services.